EW4164 Weather Reports


time (UTC)temp
F
wind
direction
speed
knots
gust
knots
rain 1hr
in
rain 24hr
in
rain mn
in
humidity
%
barometer
mb
20260506033231 51 177 1.7 4.3 0.01 0.12 0.01 95 1006.7
20260506033050 50 207 2.6 6.1 0.01 0.12 0.02 95 1006.8
20260506032223 50 223 0.9 3.5 0.01 0.12 0.01 95 1006.8
20260506031554 50 194 0.0 1.7 0.01 0.12 0.02 95 1007.0
20260506031210 51 223 0.9 2.6 0.01 0.12 0.01 95 1006.9
20260506030225 51 232 0.9 2.6 0.00 0.11 0.00 95 1007.1
20260506030030 51 238 0.9 1.7 0.00 0.11 0.01 95 1007.2
20260506025214 51 257 0.9 3.5 0.00 0.11 0.00 95 1007.2
20260506024540 51 155 0.9 3.5 0.00 0.11 0.01 95 1007.4
20260506024227 51 217 0.9 3.5 0.00 0.11 0.00 95 1007.3
20260506023222 51 175 0.9 2.6 0.00 0.11 0.00 95 1007.3
20260506023030 51 136 0.9 4.3 0.00 0.11 0.01 95 1007.5
20260506022222 51 149 0.9 2.6 0.00 0.11 0.00 95 1007.4
20260506021521 51 167 0.0 2.6 0.00 0.11 0.01 95 1007.5
20260506020210 51 171 1.7 4.3 0.00 0.11 0.00 95 1007.3
20260506020034 51 105 0.9 4.3 0.00 0.11 0.01 95 1007.3
20260506015207 51 158 0.9 1.7 0.00 0.11 0.00 94 1007.1
20260506014553 50 207 0.0 0.9 0.00 0.11 0.01 94 1007.2
20260506014225 51 198 0.0 0.9 0.00 0.11 0.00 94 1007.0
20260506013102 51 238 0.0 0.9 0.00 0.11 0.01 94 1007.2
20260506011557 51 208 0.0 1.7 0.00 0.11 0.01 94 1007.4
20260506011223 52 200 0.0 0.9 0.00 0.11 0.00 94 1007.4
20260506010226 52 211 0.9 1.7 0.00 0.11 0.00 94 1007.5
20260506010045 52 211 0.0 1.7 0.00 0.11 0.01 94 1007.6
20260506005220 53 202 0.9 1.7 0.00 0.11 0.00 94 1007.4
20260506004625 52 189 0.0 1.7 0.00 0.11 0.01 94 1007.6
20260506004222 53 242 0.9 2.6 0.00 0.11 0.00 94 1007.5
20260506003212 53 219 0.0 0.9 0.00 0.11 0.00 94 1007.6
20260506003016 53 204 0.0 1.7 0.00 0.11 0.01 94 1007.7
20260506002231 53 200 0.9 2.6 0.00 0.11 0.00 94 1007.6
20260506001528 53 248 0.0 2.6 0.00 0.11 0.01 94 1007.8
20260506001230 54 229 0.9 2.6 0.00 0.11 0.00 94 1007.8
20260506000044 53 175 0.0 2.6 0.00 0.11 0.01 94 1008.0
20260505234618 53 173 0.0 1.7 0.00 0.11 0.01 94 1008.0
20260505234225 54 194 0.9 2.6 0.00 0.11 0.00 94 1008.0
20260505233221 53 214 0.9 2.6 0.00 0.11 0.00 94 1008.1
20260505233009 53 213 0.9 2.6 0.00 0.11 0.01 94 1008.2
20260505232212 53 167 0.9 1.7 0.00 0.11 0.00 94 1008.1
20260505231510 53 205 0.0 1.7 0.00 0.11 0.01 94 1008.2
20260505231215 53 182 0.9 3.5 0.00 0.11 0.00 94 1008.1
20260505230216 54 180 0.9 3.5 0.00 0.11 0.00 94 1008.1
20260505230109 53 184 0.0 2.6 0.00 0.11 0.01 94 1008.2
20260505225218 54 103 0.9 1.7 0.01 0.11 0.00 94 1008.2
20260505224600 53 232 0.0 1.7 0.01 0.11 0.01 93 1008.3
20260505223219 54 224 0.9 2.6 0.01 0.11 0.00 94 1008.1
20260505223033 54 209 0.9 2.6 0.01 0.11 0.01 94 1008.2
20260505222228 54 193 0.9 2.6 0.01 0.11 0.00 93 1008.1
20260505221513 54 200 0.0 1.7 0.01 0.11 0.01 93 1008.2
20260505221218 54 198 0.9 3.5 0.01 0.11 0.00 93 1008.1
20260505220218 54 222 0.9 3.5 0.01 0.11 0.11 93 1008.0
20260505220138 54 196 0.0 2.6 0.01 0.11 0.01 93 1008.2
20260505215223 55 207 0.0 1.7 0.00 0.10 0.10 93 1008.0
20260505214619 54 244 0.0 0.9 0.00 0.10 0.10 93 1008.2
20260505214224 55 192 0.0 1.7 0.00 0.10 0.10 93 1008.1
20260505213210 55 213 0.9 1.7 0.00 0.10 0.10 93 1008.1
20260505213100 54 218 0.0 1.7 0.00 0.10 0.10 93 1008.2
20260505212219 55 230 0.0 1.7 0.00 0.10 0.10 93 1008.1
20260505211527 55 182 0.0 0.9 0.00 0.10 0.10 93 1008.2
20260505211218 55 232 0.0 1.7 0.00 0.10 0.10 93 1008.1
20260505210221 56 232 0.9 3.5 0.00 0.10 0.10 93 1008.1
20260505210057 55 232 0.0 2.6 0.00 0.10 0.10 93 1008.3
20260505205219 56 242 0.9 3.5 0.00 0.10 0.10 93 1008.1
20260505204503 56 222 0.0 2.6 0.00 0.10 0.10 93 1008.3
20260505204234 56 138 0.9 4.3 0.00 0.10 0.10 93 1008.2
20260505203217 56 243 1.7 4.3 0.00 0.10 0.10 93 1008.2
20260505203017 56 214 0.9 5.2 0.00 0.10 0.10 93 1008.3
20260505202224 56 189 1.7 3.5 0.00 0.10 0.10 92 1008.2
20260505201528 56 119 0.9 3.5 0.00 0.10 0.10 92 1008.2
20260505201209 57 174 0.9 1.7 0.01 0.10 0.10 92 1008.1
20260505200224 57 200 0.9 2.6 0.02 0.10 0.10 92 1008.0
20260505200107 56 165 0.9 2.6 0.02 0.10 0.10 92 1008.1
20260505195227 57 200 0.9 2.6 0.02 0.10 0.10 92 1007.9
20260505194550 57 192 0.9 3.5 0.02 0.10 0.10 92 1007.9
20260505194211 57 163 0.9 2.6 0.03 0.10 0.10 91 1007.9
20260505193232 57 166 0.9 2.6 0.05 0.10 0.10 91 1007.8
20260505193054 57 155 0.0 2.6 0.04 0.10 0.10 91 1007.8
20260505192223 58 184 0.9 2.6 0.06 0.10 0.10 91 1007.6
20260505191517 57 194 0.0 1.7 0.08 0.10 0.10 91 1007.7
20260505191223 58 148 0.9 1.7 0.06 0.09 0.09 91 1007.6
20260505190220 58 186 0.9 2.6 0.05 0.09 0.09 90 1007.6
20260505185217 59 198 0.9 2.6 0.05 0.09 0.09 90 1007.7
20260505184523 58 134 0.0 1.7 0.06 0.08 0.08 89 1007.7
20260505184211 59 233 0.9 1.7 0.03 0.07 0.07 89 1007.6
20260505182226 60 188 0.9 1.7 0.02 0.02 0.02 88 1007.5
20260505181540 60 222 0.0 1.7 0.01 0.02 0.02 87 1007.6
20260505180023 0 0.0 0.0 0.00 0.02 0.02 1007.4
20260505174531 0 0.0 0.0 0.00 0.02 0.02 1007.5
20260505173227 62 150 0.0 0.9 0.00 0.02 0.02 80 1007.4
20260505173047 61 150 0.0 1.7 0.00 0.02 0.02 80 1007.4
20260505172218 62 109 0.9 0.0 0.00 0.02 0.02 80 1007.4
20260505171536 0 0.0 0.0 0.00 0.02 0.02 1007.4
20260505170110 0 0.0 0.0 0.00 0.02 0.02 1007.5
20260505164600 0 0.0 0.0 0.00 0.02 0.02 1007.5
20260505163045 0 0.0 0.0 0.00 0.02 0.02 1007.6
20260505161515 0 0.0 0.0 0.00 0.02 0.02 1007.6
20260505160107 0 0.0 0.0 0.00 0.02 0.02 1007.6
20260505153008 0 0.0 0.0 0.00 0.02 0.02 1007.7
20260505151544 0 0.0 0.0 0.00 0.02 0.02 1007.8
20260505150225 61 0 0.9 1.7 0.00 0.02 0.02 83 1007.9
20260505124606 0 0.0 0.0 0.00 0.00 0.00 1008.8
20260505123224 63 211 1.7 2.6 0.00 0.00 0.00 74 1008.9
20260505123054 0 0.0 0.0 0.00 0.00 0.00 1008.9
20260505122220 63 211 1.7 4.3 0.00 0.00 0.00 74 1008.8
20260505121554 62 216 1.7 4.3 0.00 0.00 0.00 74 1008.8
20260505120114 63 236 0.0 1.7 0.00 0.00 0.00 73 1008.8
20260505115219 63 252 0.9 2.6 0.00 0.00 0.00 74 1008.8
20260505114526 63 288 0.9 2.6 0.00 0.00 0.00 73 1008.9
20260505114225 64 248 0.9 1.7 0.00 0.00 0.00 75 1008.9
20260505113211 63 167 0.9 0.9 0.00 0.00 0.00 74 1008.9
20260505113005 63 23 0.0 2.6 0.00 0.00 0.00 74 1008.9
20260505111553 0 0.0 0.0 0.00 0.00 0.00 1009.0
20260505101524 63 123 0.9 2.6 0.00 0.00 0.00 80 1009.0
20260505101228 64 115 0.9 4.3 0.00 0.00 0.00 79 1009.0
20260505100218 64 171 1.7 4.3 0.00 0.00 0.00 79 1009.1
20260505100055 63 201 0.9 3.5 0.00 0.00 0.00 78 1009.2
20260505095226 63 182 1.7 4.3 0.00 0.00 0.00 78 1009.3
20260505094544 63 161 0.9 4.3 0.00 0.00 0.00 78 1009.3
20260505094220 63 254 0.9 3.5 0.00 0.00 0.00 78 1009.2
20260505093224 63 112 0.9 2.6 0.00 0.00 0.00 78 1009.3
20260505093046 63 225 0.9 2.6 0.00 0.00 0.00 78 1009.3
20260505092215 63 81 1.7 0.0 0.00 0.00 0.00 79 1009.4
20260505091519 0 0.0 0.0 0.00 0.00 0.00 1009.4
20260505091226 62 225 1.7 1.7 0.00 0.00 0.00 77 1009.5
20260505090218 62 225 1.7 2.6 0.00 0.00 0.00 77 1009.6
20260505090059 62 225 0.9 2.6 0.00 0.00 0.00 77 1009.6
20260505085226 62 93 1.7 3.5 0.00 0.00 0.00 77 1009.6
20260505084550 62 151 0.9 2.6 0.00 0.00 0.00 77 1009.7
20260505084218 62 151 1.7 3.5 0.00 0.00 0.00 77 1009.8
20260505083211 62 101 0.9 2.6 0.00 0.00 0.00 77 1009.9
20260505083103 62 144 0.9 3.5 0.00 0.00 0.00 77 1009.9
20260505082215 62 214 0.9 0.9 0.00 0.00 0.00 78 1009.9
20260505081523 0 0.0 0.0 0.00 0.00 0.00 1009.8
20260505081228 62 214 0.9 3.5 0.00 0.00 0.00 78 1009.9
20260505080055 61 166 0.0 3.5 0.00 0.00 0.00 78 1009.9
20260505075226 61 155 0.9 1.7 0.00 0.00 0.00 78 1009.9
20260505074510 60 92 0.0 2.6 0.00 0.00 0.00 80 1009.9
20260505074211 60 138 0.9 3.5 0.00 0.00 0.00 79 1010.0
20260505073220 60 218 0.9 3.5 0.00 0.00 0.00 79 1010.1
20260505073110 60 222 0.9 2.6 0.00 0.00 0.00 79 1010.0
20260505072217 60 57 0.9 0.9 0.00 0.00 0.00 79 1010.1
20260505071559 59 348 0.0 0.9 0.00 0.00 0.00 80 1010.1
20260505071212 59 244 0.0 0.9 0.00 0.00 0.00 80 1010.1
20260505070053 58 244 0.0 0.9 0.00 0.00 0.00 80 1010.1
20260505065212 58 215 0.0 0.9 0.00 0.00 0.00 81 1010.2
20260505064606 57 215 0.0 0.9 0.00 0.00 0.00 82 1010.1
20260505063227 57 229 0.0 0.9 0.00 0.00 0.00 82 1010.2
20260505063039 57 229 0.0 0.9 0.00 0.00 0.00 82 1010.1
20260505062213 57 233 0.9 1.7 0.00 0.00 0.00 82 1010.1
20260505061542 56 219 0.0 1.7 0.00 0.00 0.00 82 1010.1
20260505061218 57 182 0.0 0.9 0.00 0.00 0.00 82 1010.2
20260505060225 57 244 0.0 0.9 0.00 0.00 0.00 82 1010.2
20260505060055 56 244 0.0 1.7 0.00 0.00 0.00 82 1010.2
20260505054517 0 0.0 0.0 0.00 0.00 0.00 1010.3
20260505054225 56 240 0.9 1.7 0.00 0.00 0.00 84 1010.3
20260505053230 56 240 0.9 1.7 0.00 0.00 0.00 84 1010.3
20260505053047 55 240 0.9 2.6 0.00 0.00 0.00 84 1010.3
20260505052214 55 208 0.9 2.6 0.00 0.00 0.00 84 1010.3
20260505051555 55 217 0.9 3.5 0.00 0.00 0.00 84 1010.3
20260505051245 55 204 1.7 2.6 0.00 0.00 0.00 84 1010.3
20260505050227 55 238 0.9 2.6 0.00 0.00 0.00 84 1010.2
20260505041552 55 203 1.7 2.6 0.00 0.00 0.00 84 1010.1
20260505041218 55 226 0.9 1.7 0.00 0.00 0.00 84 1010.2
20260505040056 55 269 0.9 2.6 0.00 0.00 0.00 84 1010.1
20260505035227 55 27 0.9 3.5 0.00 0.00 0.00 84 1010.1
20260505034519 55 223 0.9 3.5 0.00 0.00 0.00 84 1010.0
20260505034222 55 257 1.7 3.5 0.00 0.00 0.00 84 1010.1